No identification:

 

2001 EC                                                                     

Epoch 2001 Apr. 1.0 TT = JDT 2452000.5                  Nakano

M  18.43005              (2000.0)            P               Q

n   0.23913424     Peri.   72.51574     +0.32520608     -0.94564313

a   2.5706416      Node   358.50612     +0.86362044     +0.29711521

e   0.7727183      Incl.    0.59540     +0.38522818     +0.13221808

P   4.12           H   18.5           G   0.15           U   7

Residuals in seconds of arc 

010303 704  0.4+  0.3+    010305 428  0.3-  0.1-    010306 642  0.4+  0.1-  

010303 704  0.4+  0.4+    010305 300  0.4-  0.1-    010306 642  0.0   0.2+  

010303 704  0.4+  0.4+    010305 300  0.2+  0.3+    010306 750  0.2+  0.4+  

010303 704  0.5+  0.3+    010305 300  0.2-  0.1+    010306 750  0.0   0.5+  

010303 704  0.4+  0.3+    010305 300  0.2-  0.1-    010306 750  0.1+  0.5+  

010304 919  0.1-  0.6-    010305 300  0.2-  0.2+    010306 750  0.4+  0.4+  

010304 919  0.2+  0.5-    010305 428  0.1-  0.1+    010306 750  0.2+  0.4+  

010304 919  0.3-  0.6-    010305 428  0.0   0.1-    010306 428  0.2-  0.2-  

010304 919  0.4+  0.0     010305 428  0.2-  0.1+    010306 428  0.2-  0.3-  

010304 919  0.5-  0.5-    010305 428  0.2-  0.1+    010306 428  0.1-  0.2-  

010304 919  0.1-  0.2-    010305 428  0.1-  0.0     010306 046  0.4+  0.2+  

010304 739  0.1-  0.7-    010305 428  0.0   0.3+    010306 046  0.0   0.3+  

010304 739  0.7-  1.0-    010305 428  0.3-  0.2+    010306 046  0.1-  0.2+  

010304 919  0.3+  0.4-    010305 428  0.1-  0.2+    010306 046  0.0   0.6+  

010304 919  0.1-  0.4-    010305 428  0.1+  0.0     010307 642  0.3+  0.1+  

010304 739  0.2-  0.9-    010305 428  0.1-  0.1+    010307 642  0.0   0.2-  

010304 649  0.6-  0.6-    010305 349  0.2-  0.2+    010307 642  0.2+  0.3-  

010304 649  0.7-  0.6-    010305 349  0.2+  0.5+    010307 642  0.3+  0.3+  

010304 649  0.9-  0.5-    010305 349  0.0   0.1-    010307 642  0.1+  0.4+  

010304 711  0.0   0.1+    010305 349  0.0   0.2+    010307 642  1.0+  0.9-  

010304 711  0.0   0.2-    010305 176  0.3-  0.5+    010308 670  0.2+  0.7+  

010304 711  0.0   0.1-    010305 176  0.4-  0.7+    010308 670  0.0   0.0   

010304 704  0.1+  0.2+    010305 104  0.2-  0.1+    010309 300  0.1-  0.1+  

010304 704  0.0   0.1+    010305 104  0.2-  0.0     010309 300  0.7+  1.3-  

010304 704  0.1-  0.1+    010305 176  0.1+  0.5+    010309 300  0.0   0.1+  

010304 704  0.0   0.2+    010305 104  0.5-  0.2-    010309 300  1.3+  0.3-  

010304 704  0.2+  0.9+    010305 104  0.6-  0.2-    010309 300  0.9+  0.2-  

010304 704  0.3+  0.5+    010305 611  0.3-  0.6+    010311 428  0.5-  0.1+  

010304 704  0.2-  0.1+    010305 104  0.7-  0.2-    010311 428  0.1+  0.1-  

010304 704  0.9-  0.1+    010305 176  0.4+  0.1+    010311 428  0.2-  0.1-  

010304 704  0.2+  0.4+    010305 611  0.3-  0.2+    010311 428  0.2-  0.0   

010304 704  1.6-  0.7-    010305 611  0.1+  0.7+    010311 428  0.0   0.1-  

010304 704  0.5+  0.4+    010305 611  0.4-  0.4+    010311 428  0.2-  0.1-  

010304 704  0.8+  0.6+    010305 151  0.2+  0.3-    010311 118  0.3+  0.1+  

010304 428  0.2-  0.2-    010305 151  0.1+  0.3-    010311 118  0.3+  0.3+  

010304 428  0.1+  0.5-    010305 151  0.2+  0.3-    010313 739  0.3-  0.3-  

010304 165  0.7+  0.9+    010305 151  0.3+  0.3-    010313 739  0.2-  0.4-  

010304 165  0.2+  1.2+    010305 165  0.1-  0.1+    010313 739  0.3-  0.3-  

010304 165  0.5-  0.7+    010305 165  0.2-  0.4+    010313 739  0.1-  0.3-  

010304 165  1.0-  0.5-    010305 165  0.1-  0.4+    010313 649  0.2-  1.2-  

010305 726  0.3+  0.1-    010305 165  0.3-  0.3+    010313 649  0.2-  0.2+  

010305 726  0.2+  0.2-    010306 726  0.4+  0.5-    010313 649  0.1+  0.1+  

010305 726  0.2+  0.2-    010306 726  0.6+  0.4-    010313 649  0.2-  0.0   

010305 726  0.0   0.3-    010306 726  0.4+  0.7-    010313 608  0.8+  1.1+  

010305 739  0.4+  0.7-    010306 726  0.1+  0.4-    010313 608  1.1+  1.3+  

010305 739  0.4+  0.7-    010306 726  0.2+  0.5-    010313 322  0.6-  0.2-  

010305 739  0.4+  0.7-    010306 726  0.4+  0.5-    010313 608  1.1+  1.0+  

010305 704  0.0   0.4+    010306 726  0.2+  0.5-    010313 322  0.8-  0.1-  

010305 704  0.2+  0.5+    010306 726  0.2+  0.5-    010313 322  0.7-  0.1-  

010305 704  0.0   0.5+    010306 726  0.4+  0.6-    010313 360  0.3-  0.1+  

010305 704  0.2+  0.4+    010306 726  0.0   0.5-    010313 360  0.2-  0.0   

010305 704  0.9+  0.6+    010306 726  0.2+  0.5-    010313 360  0.3-  0.0   

010305 428  0.1+  0.1-    010306 726  0.1+  0.5-    010314 739  0.5-  0.2-  

010305 428  0.2+  0.0     010306 642  0.0   0.6+    010314 739  0.4-  0.4-  

010305 428  0.1-  0.0     010306 642  0.4-  0.1-    010314 739  0.1-  0.3-  

010305 428  0.3-  0.0     010306 642  0.2-  0.5+                            

  

NAKANO

         **** Don't distribute anyone except personal use only ****

                (C) Copyright 2001 OAA/ComputingSection

write mail from CFAD0::NAKANO on 2001-03-14 19:00:46(JST).

 





–ß‚è‚Ü‚·B